Regional Weather Roundup
Issued by NWS Bismarck, ND

Home | Current Version | Previous Version | Text Only | Print | Product List | Glossary On
Versions: 1 2 3 4 5 6 7 8 9 10 11 12 13 14 15 16 17 18 19 20 21 22 23 24 25 26 27 28 29 30 31 32 33 34 35 36 37 38 39 40 41 42 43 44 45 46 47 48 49 50
900
ASUS43 KBIS 260302
RWRBIS

NWR BROADCAST TEXT
NATIONAL WEATHER SERVICE BISMARCK ND
1000 PM CDT TUE APR 25 2017

NOTE: "FAIR" INDICATES FEW OR NO CLOUDS BELOW 12,000 FEET WITH NO
SIGNIFICANT WEATHER AND/OR OBSTRUCTIONS TO VISIBILITY.


CITY           SKY/WX    TMP DP  RH WIND       PRES   REMARKS
WILLISTON      CLOUDY    37  26  64 N7        29.98R
MINOT          CLOUDY    37  25  61 NE10      29.96R
MINOT AFB      FAIR      37  25  62 NE13      29.96R
BISMARCK       CLOUDY    37  28  70 NE13      29.92R
DICKINSON      CLOUDY    31  24  75 N7        29.91R
GARRISON         N/A     35  26  69 NE7       29.93R
HETTINGER ARPT CLOUDY    31  25  78 N9        29.93R
JAMESTOWN      CLOUDY    32  26  78 N20G26    29.85F
HAZEN          CLOUDY    34  27  75 CALM      29.96R
LINTON           N/A     32  28  86 NE16G23   29.90R
MANDAN         CLOUDY    34  28  80 NE14      29.91R
STANLEY        FAIR      34  27  75 NE7       29.98R
TIOGA          FAIR      32  28  86 NE6       29.98R
WATFORD CITY   CLOUDY    36  27  69 N7        29.96R
$$

CITY           SKY/WX    TMP DP  RH WIND       PRES   REMARKS
GRAND FORKS    CLOUDY    35  28  75 NE18      29.90R
GRAND FORKS AF CLOUDY    34  27  76 NE15      29.91R
DEVILS LAKE    FAIR      34  28  79 NE13      29.93R
FARGO          CLOUDY    34  28  79 N18G31    29.82R
CAVALIER       FAIR      34  27  75 NE7       29.95R
GRAFTON        FAIR      34  28  80 NE15      29.94S
GWINNER        CLOUDY    34  30  86 MISG      29.80R
LANGDON        FAIR      34  28  80 NE13      29.93R
ROLLA          FAIR      32  25  74 N17       29.95S
$$

CITY           SKY/WX    TMP DP  RH WIND       PRES   REMARKS
ABERDEEN       CLOUDY    33  26  75 N17       29.80S
MOBRIDGE       CLOUDY    35  25  66 N20       29.84S
BUFFALO          N/A     30  25  81 N15       29.86R WCI  19
RAPID CITY     FLURRIES  28  25  88 N17       29.89R WCI  16
GLASGOW        CLOUDY    40  22  48 E14       29.95R
SIDNEY         MOCLDY    35  24  64 NE3       29.98R
WOLF POINT     CLOUDY    41  24  51 E8        29.98R
GLENDIVE       FAIR      32  26  78 E7        29.97R
MILES CITY     CLOUDY    37  25  61 CALM      29.94R
BAKER          CLOUDY    32  24  72 E10       29.94R
$$

CITY           SKY/WX    TMP DP  RH WIND       PRES   REMARKS
BILLINGS       CLOUDY    37  29  72 E6        29.88R
GREAT FALLS    LGT RAIN  39  36  89 N6        29.84R
$$





USA.gov is the U.S. government's official web portal to all federal, state and local government web resources and services.